Regional Weather Roundup
Issued by NWS

Home | Current Version | Previous Version | Graphics & Text | Print | Product List | Glossary On
Versions: 1 2 3 4 5 6 7 8 9 10 11 12 13 14 15 16 17 18 19 20 21 22 23 24 25 26 27 28 29 30 31 32 33 34 35 36 37 38 39 40 41 42 43 44 45 46 47 48 49 50
000
ASUS43 KFSD 292102
RWRSD

WEATHER ROUNDUP FOR SOUTH DAKOTA
NATIONAL WEATHER SERVICE SIOUX FALLS SD
400 PM CDT MON SEP 29 2014

NOTE: "FAIR" INDICATES FEW OR NO CLOUDS BELOW 12,000 FEET WITH NO
SIGNIFICANT WEATHER AND/OR OBSTRUCTIONS TO VISIBILITY.


SDZ001>005-009-010-012>017-292200-
NORTHWEST AND NORTH CENTRAL SOUTH DAKOTA

CITY           SKY/WX    TMP DP  RH WIND       PRES   REMARKS
BUFFALO          N/A     51  48  89 E10       29.92F
FAITH            N/A     52  51  97 E12       30.00F
MOBRIDGE       CLOUDY    60  50  69 E10       30.01F
$$

SDZ012>016-024>037-041>051-057-063-072>074-292200-
SOUTHWEST AND SOUTH CENTRAL SOUTH DAKOTA

CITY           SKY/WX    TMP DP  RH WIND       PRES   REMARKS
RAPID CTY ARPT LGT RAIN  50  49  96 S3        29.98F VSB 1
PIERRE         CLOUDY    62  53  72 NE10      29.99F
CUSTER         CLOUDY    51  48  89 SE7       30.00F
ELLSWORTH AFB  DRIZZLE   50  50 100 S9        29.98F
PHILIP         RAIN      55  53  93 E15       29.96F FOG
PINE RIDGE     CLOUDY    59  56  89 W3        29.95F
WINNER         CLOUDY    65  58  78 E14       29.97F
$$

SDZ004>011-016>023-039-040-292200-
NORTHEAST SOUTH DAKOTA

CITY           SKY/WX    TMP DP  RH WIND       PRES   REMARKS
ABERDEEN       CLOUDY    63  50  62 E14       30.06F
WATERTOWN      MOSUNNY   64  51  62 E12       30.06F
SISSETON         N/A     61  50  67 SE8       30.09F
$$

SDZ017-020-022-023-036>040-048>070-292200-
SOUTHEAST SOUTH DAKOTA

CITY           SKY/WX    TMP DP  RH WIND       PRES   REMARKS
SIOUX FALLS    PTSUNNY   69  59  70 E12       30.03F
HURON          CLOUDY    69  55  60 E10       30.01F
CHAMBERLAIN    MOSUNNY   69  59  69 SE14      29.98F
MITCHELL       SUNNY     74  60  61 SE10      29.99F
YANKTON        SUNNY     75  61  60 E9        29.98F
$$

ABBREVIATIONS USED IN REMARKS
   TC - TEMPERATURE IN CELSIUS
  WCI - WIND CHILL INDEX
   HX - HEAT INDEX
  VSB - VISIBILITY



USA.gov is the U.S. government's official web portal to all federal, state and local government web resources and services.